Погода в Рамсгейте

Великобритания     51°20′30″N   1°24′26″E
темп.,
°C
ветер,
м/с
пор.,
м/с
влажн.,
%
обл.,
%
осадки,
мм/ч
давл.,
гПа
погр.,
м
25 февраля, чт
чт2500:00+10ююз71287100 0.0 1023196
03:00+10юз81284100 0.0 1023231
06:00+9юз588999 0.0 1024156
09:00+9юз5791100 0.0 1025134
12:00+11сз3486100 0.0 1027144
15:00+10сз3485100 0.0 1028112
18:00+9зсз3485100 0.4 102950
21:00+8сз577995 0.0 1032111
26 февраля, пт
пт2600:00+7сз578369 0.0 1033166
03:00+7ссз458533 0.0 1034170
06:00+6ссз568417 0.0 1035270
09:00+7ссз56770 0.0 1036352
12:00+7с44740 0.0 1037320
15:00+7с34710 0.0 1036290
18:00+7с11720 0.0 103765
21:00+7з00760 0.0 103823
27 февраля, сб
сб2700:00+6зсз12680 0.0 103860
03:00+6сз33780 0.0 1038111
06:00+6ссз34780 0.0 1039178
09:00+7с34780 0.0 1039258
12:00+7ссв33760 0.0 1039289
15:00+8ссв44760 0.0 1038282
18:00+7св46810 0.0 1038288
21:00+7св58820 0.0 1038311
28 февраля, вс
вс2800:00+7св57840 0.0 1038356
03:00+7св57830 0.0 1037401
06:00+7св67830 0.0 1036410
09:00+7всв68800 0.0 1036499
12:00+8всв68780 0.0 1036473
15:00+8св810820 0.0 1034533
18:00+7всв811892 0.0 1033450
21:00+8всв811870 0.0 1033408
1 марта, пн
пн100:00+7в810870 0.0 1033414
03:00+7всв568598 0.0 1030424
06:00+7всв458569 0.0 1029339
09:00+7всв568634 0.0 1029348
12:00+7в337945 0.0 1029365
15:00+7всв44780 0.0 1028282
18:00+6всв34800 0.0 1028159
21:00+7всв34825 0.0 1029104